Temp
-14 -14 -14 -14 -14 -14 -14 -14 -15 -15 -15 -14 -14 -14 -13 -13 -12 -12 -11 -11 -11 -11 -10 -11 -11 -11 -12 -12 -12 -12 -11 -11 -11 -11 -11 -10 -9 -8 -9 -10 -11 -10 -10 -10 -9
-14 -14 -14 -14 -14 -15 -15 -15 -15 -15 -15 -15 -14 -14 -14 -14 -13 -12 -12 -12 -12 -12 -11 -11 -11 -12 -12 -13 -13 -12 -12 -13 -12 -11 -11 -10 -10 -10 -9 -10 -12 -12 -11 -11 -10
-14 -14 -14 -15 -15 -15 -15 -15 -15 -15 -15 -14 -14 -14 -14 -14 -14 -14 -13 -13 -13 -13 -12 -12 -12 -12 -13 -13 -13 -13 -13 -14 -12 -11 -11 -10 -11 -11 -10 -10 -11 -12 -11 -10 -10
-15 -15 -15 -15 -15 -15 -15 -15 -15 -15 -15 -14 -14 -14 -15 -15 -15 -15 -15 -15 -15 -14 -14 -13 -13 -14 -14 -14 -14 -13 -14 -13 -11 -11 -12 -11 -11 -11 -11 -11 -12 -11 -12 -11 -12
-15 -15 -15 -15 -15 -15 -15 -15 -15 -15 -15 -15 -15 -15 -16 -16 -15 -16 -16 -16 -16 -16 -15 -15 -15 -15 -15 -14 -13 -14 -14 -14 -13 -13 -13 -13 -13 -13 -13 -12 -11 -12 -12 -11 -12
-15 -15 -15 -15 -15 -15 -15 -15 -15 -15 -15 -15 -16 -16 -15 -15 -15 -15 -16 -16 -17 -16 -16 -16 -16 -15 -15 -15 -14 -14 -14 -14 -14 -13 -13 -13 -13 -13 -13 -12 -11 -11 -12 -11 -11
-15 -15 -15 -15 -15 -15 -15 -15 -15 -15 -15 -15 -15 -15 -16 -16 -16 -17 -16 -16 -17 -17 -17 -16 -15 -15 -15 -15 -14 -15 -15 -14 -14 -14 -13 -14 -13 -13 -13 -13 -12 -12 -12 -12 -11
-15 -15 -15 -15 -15 -16 -15 -16 -16 -16 -15 -15 -15 -16 -15 -16 -16 -16 -16 -16 -16 -17 -17 -16 -16 -15 -15 -15 -15 -15 -15 -14 -14 -14 -13 -13 -13 -13 -13 -12 -12 -12 -12 -12 -11
-15 -15 -15 -15 -15 -16 -16 -16 -16 -16 -16 -15 -15 -16 -15 -16 -16 -16 -16 -16 -16 -16 -16 -16 -16 -15 -15 -15 -15 -14 -14 -14 -14 -13 -13 -13 -13 -13 -13 -13 -13 -12 -12 -12 -12
-16 -16 -16 -16 -16 -16 -16 -16 -16 -16 -16 -16 -16 -16 -16 -15 -16 -16 -16 -16 -16 -16 -15 -15 -15 -15 -15 -15 -14 -14 -14 -15 -14 -14 -13 -13 -13 -13 -12 -12 -12 -12 -12 -12 -12
-16 -16 -16 -16 -16 -16 -16 -16 -15 -16 -16 -16 -16 -16 -16 -16 -16 -16 -16 -16 -16 -16 -16 -16 -16 -16 -15 -15 -15 -15 -14 -14 -15 -14 -14 -14 -14 -13 -13 -13 -13 -12 -12 -12 -12
-16 -16 -16 -16 -16 -16 -16 -16 -16 -16 -16 -16 -16 -16 -16 -16 -16 -16 -16 -16 -16 -16 -16 -16 -15 -16 -15 -15 -15 -15 -15 -15 -14 -14 -14 -13 -13 -13 -13 -12 -12 -12 -12 -12 -12
-16 -16 -16 -16 -16 -16 -16 -16 -16 -16 -16 -16 -16 -16 -16 -16 -16 -16 -16 -16 -16 -16 -16 -16 -16 -16 -15 -15 -15 -15 -15 -15 -14 -14 -14 -13 -13 -13 -12 -12 -12 -12 -12 -12 -12
-16 -16 -16 -16 -16 -16 -17 -16 -16 -16 -16 -16 -16 -16 -16 -16 -16 -16 -16 -16 -16 -16 -16 -16 -16 -16 -16 -16 -15 -15 -15 -15 -14 -14 -14 -13 -13 -15 -16 -16 -17 -17 -17 -14 -12
-16 -17 -17 -17 -17 -16 -17 -17 -16 -16 -16 -16 -16 -16 -16 -16 -16 -16 -16 -16 -16 -16 -16 -16 -16 -16 -16 -16 -16 -15 -15 -15 -15 -14 -14 -14 -16 -18 -19 -19 -19 -19 -19 -20 -19
-17 -17 -17 -17 -17 -17 -17 -17 -17 -17 -16 -16 -16 -16 -16 -16 -16 -16 -16 -16 -16 -16 -16 -16 -17 -17 -16 -16 -16 -16 -16 -15 -15 -15 -15 -16 -19 -19 -20 -19 -20 -20 -20 -20 -20
-17 -17 -17 -17 -17 -17 -17 -17 -17 -17 -17 -17 -17 -16 -16 -16 -16 -16 -16 -16 -17 -17 -17 -17 -17 -17 -16 -16 -16 -16 -16 -16 -15 -15 -16 -17 -19 -20 -20 -20 -20 -20 -20 -20 -20
-18 -17 -17 -17 -18 -17 -17 -17 -17 -17 -17 -17 -17 -17 -17 -16 -16 -17 -17 -17 -17 -17 -17 -17 -17 -17 -17 -17 -17 -17 -16 -16 -16 -16 -17 -18 -19 -20 -20 -20 -20 -20 -20 -20 -20
-18 -18 -18 -18 -18 -17 -17 -17 -17 -17 -17 -17 -17 -17 -17 -17 -17 -17 -17 -17 -17 -17 -17 -17 -17 -17 -17 -17 -17 -17 -17 -17 -16 -17 -17 -18 -19 -19 -20 -20 -20 -20 -20 -19 -20
-18 -18 -18 -18 -18 -17 -17 -17 -17 -17 -17 -17 -17 -17 -18 -17 -17 -17 -17 -17 -17 -17 -17 -17 -17 -17 -17 -17 -17 -17 -17 -17 -17 -17 -17 -17 -18 -20 -21 -21 -20 -20 -20 -20 -19
-19 -19 -19 -18 -18 -17 -17 -17 -18 -18 -17 -17 -18 -18 -18 -17 -17 -17 -17 -17 -17 -17 -17 -17 -17 -17 -17 -18 -18 -18 -18 -18 -18 -18 -18 -18 -19 -19 -20 -20 -20 -20 -20 -20 -20
-19 -19 -19 -19 -18 -17 -17 -18 -18 -18 -18 -18 -18 -17 -18 -18 -18 -18 -17 -18 -17 -18 -18 -17 -17 -17 -18 -18 -18 -18 -18 -18 -18 -18 -18 -18 -19 -19 -19 -20 -20 -20 -20 -19 -20
-20 -20 -20 -19 -18 -18 -18 -18 -18 -18 -18 -18 -18 -18 -18 -18 -18 -18 -17 -18 -18 -18 -18 -18 -17 -17 -17 -18 -18 -18 -18 -18 -18 -18 -18 -18 -19 -19 -19 -19 -19 -20 -20 -20 -20
-21 -20 -19 -19 -18 -18 -19 -19 -18 -19 -18 -18 -18 -18 -18 -18 -18 -18 -17 -18 -18 -18 -18 -18 -18 -18 -17 -18 -18 -18 -18 -18 -18 -19 -19 -19 -18 -19 -19 -19 -20 -20 -20 -20 -20
-22 -21 -20 -19 -19 -19 -19 -19 -19 -19 -19 -19 -19 -19 -18 -18 -18 -18 -17 -18 -18 -18 -18 -18 -18 -18 -18 -18 -18 -18 -18 -18 -19 -19 -19 -19 -19 -19 -19 -19 -19 -20 -20 -20 -20
-22 -22 -21 -20 -20 -20 -19 -19 -19 -19 -19 -19 -19 -19 -18 -18 -18 -18 -18 -18 -18 -18 -18 -18 -18 -18 -18 -18 -18 -18 -18 -18 -19 -19 -19 -19 -19 -19 -19 -20 -20 -20 -20 -20 -20
-22 -23 -22 -21 -20 -20 -19 -20 -19 -20 -19 -19 -19 -19 -19 -19 -18 -18 -18 -18 -18 -18 -18 -18 -18 -18 -18 -18 -18 -18 -18 -18 -18 -19 -19 -19 -19 -19 -19 -19 -20 -20 -20 -20 -20
Height
5751 5750 5750 5750 5751 5751 5751 5752 5752 5754 5754 5755 5756 5759 5759 5760 5761 5764 5767 5771 5776 5781 5785 5790 5794 5798 5804 5809 5813 5818 5823 5829 5832 5835 5841 5843 5846 5848 5855 5860 5859 5857 5860 5858 5864
5751 5751 5751 5751 5751 5750 5750 5749 5751 5751 5752 5752 5753 5753 5753 5752 5753 5755 5758 5762 5766 5772 5777 5781 5786 5792 5797 5800 5806 5811 5818 5821 5822 5828 5835 5837 5839 5846 5851 5856 5853 5853 5855 5856 5866
5751 5750 5750 5749 5749 5749 5748 5748 5749 5750 5750 5750 5749 5749 5749 5750 5748 5747 5749 5752 5757 5763 5768 5773 5778 5784 5790 5794 5800 5806 5812 5808 5815 5820 5826 5831 5832 5836 5846 5848 5849 5851 5850 5851 5860
5749 5749 5749 5748 5748 5748 5747 5747 5747 5747 5747 5746 5745 5746 5747 5745 5746 5744 5744 5745 5749 5755 5760 5766 5771 5777 5784 5789 5793 5798 5801 5801 5809 5816 5821 5824 5828 5831 5838 5840 5840 5844 5846 5844 5848
5746 5746 5746 5746 5746 5746 5746 5745 5746 5746 5745 5744 5743 5742 5742 5742 5742 5742 5743 5744 5746 5750 5755 5760 5766 5772 5775 5780 5785 5791 5796 5802 5806 5813 5817 5820 5821 5823 5822 5825 5833 5836 5836 5838 5835
5742 5742 5743 5743 5742 5742 5743 5743 5743 5744 5744 5743 5742 5742 5740 5741 5740 5741 5743 5744 5746 5750 5754 5759 5763 5770 5775 5781 5788 5792 5795 5798 5799 5801 5807 5813 5812 5811 5813 5817 5822 5825 5828 5829 5831
5739 5740 5739 5739 5739 5740 5740 5741 5742 5743 5743 5744 5743 5742 5741 5742 5739 5741 5742 5744 5745 5749 5752 5757 5762 5767 5772 5777 5781 5784 5786 5788 5793 5794 5798 5803 5803 5800 5803 5809 5812 5817 5818 5821 5823
5736 5736 5736 5736 5736 5736 5737 5738 5739 5740 5741 5743 5742 5742 5742 5742 5742 5743 5744 5745 5748 5750 5753 5756 5760 5764 5769 5772 5776 5778 5781 5783 5786 5790 5790 5796 5793 5791 5799 5802 5803 5806 5810 5813 5819
5731 5732 5733 5733 5733 5733 5733 5735 5736 5737 5739 5741 5741 5741 5743 5743 5742 5743 5745 5747 5749 5751 5754 5756 5760 5763 5767 5770 5773 5775 5778 5781 5781 5783 5784 5784 5782 5790 5792 5793 5795 5797 5801 5804 5806
5726 5727 5729 5729 5729 5730 5730 5731 5732 5734 5737 5739 5740 5742 5742 5743 5742 5744 5746 5747 5750 5752 5755 5757 5760 5763 5765 5768 5770 5772 5774 5775 5775 5776 5776 5775 5774 5781 5783 5785 5783 5784 5787 5789 5789
5720 5722 5723 5724 5725 5726 5728 5729 5731 5732 5733 5736 5738 5739 5740 5742 5743 5744 5746 5748 5750 5752 5754 5757 5759 5760 5763 5765 5767 5769 5770 5770 5771 5770 5768 5766 5772 5772 5771 5771 5769 5769 5771 5772 5774
5713 5715 5718 5720 5721 5723 5725 5726 5727 5727 5729 5731 5734 5736 5737 5739 5742 5744 5745 5748 5749 5750 5753 5755 5757 5758 5759 5759 5760 5760 5761 5762 5761 5760 5758 5758 5760 5758 5756 5753 5752 5754 5753 5754 5755
5706 5708 5711 5714 5716 5718 5720 5721 5722 5723 5725 5727 5729 5732 5734 5737 5738 5740 5743 5745 5746 5749 5750 5752 5753 5754 5755 5756 5757 5758 5757 5756 5756 5755 5753 5752 5751 5746 5742 5739 5736 5736 5735 5734 5737
5698 5701 5704 5708 5711 5712 5715 5717 5718 5719 5721 5724 5725 5727 5730 5732 5735 5737 5739 5742 5743 5744 5745 5746 5747 5748 5749 5750 5750 5751 5751 5752 5751 5750 5747 5743 5740 5735 5729 5725 5722 5719 5715 5712 5714
5690 5693 5696 5700 5703 5708 5708 5711 5714 5716 5717 5720 5721 5724 5726 5730 5732 5734 5736 5738 5739 5740 5743 5744 5744 5746 5747 5748 5748 5748 5748 5747 5745 5743 5741 5736 5730 5727 5724 5720 5715 5713 5710 5704 5699
5682 5685 5688 5693 5697 5700 5701 5704 5708 5712 5713 5715 5716 5719 5722 5725 5728 5730 5733 5735 5736 5737 5739 5741 5742 5743 5744 5744 5745 5744 5744 5743 5740 5737 5732 5728 5724 5724 5720 5716 5711 5706 5703 5700 5695
5672 5676 5680 5684 5691 5691 5694 5697 5702 5705 5711 5713 5714 5715 5718 5721 5724 5727 5729 5731 5733 5735 5736 5738 5739 5739 5740 5741 5740 5740 5739 5737 5735 5730 5726 5721 5720 5718 5715 5711 5707 5702 5697 5694 5688
5662 5666 5671 5676 5680 5682 5686 5690 5694 5701 5704 5708 5710 5712 5714 5717 5720 5723 5726 5728 5729 5731 5732 5734 5736 5736 5736 5736 5736 5736 5735 5732 5728 5724 5721 5717 5715 5714 5711 5707 5702 5698 5694 5690 5685
5651 5655 5661 5666 5669 5673 5677 5680 5690 5694 5697 5702 5705 5707 5710 5713 5717 5718 5721 5724 5725 5727 5729 5730 5732 5732 5732 5732 5733 5732 5730 5729 5725 5722 5717 5715 5712 5709 5706 5704 5699 5695 5690 5688 5684
5639 5645 5651 5656 5659 5663 5666 5674 5682 5686 5690 5694 5699 5702 5705 5708 5712 5714 5717 5720 5721 5723 5724 5726 5728 5728 5728 5729 5728 5727 5727 5725 5722 5719 5715 5712 5708 5705 5701 5698 5695 5691 5688 5684 5682
5627 5633 5638 5643 5647 5651 5656 5668 5674 5678 5682 5688 5691 5694 5699 5703 5706 5708 5712 5716 5717 5719 5721 5722 5725 5725 5725 5725 5725 5725 5723 5722 5720 5717 5713 5710 5707 5703 5698 5693 5690 5688 5685 5683 5680
5613 5620 5627 5631 5637 5640 5649 5661 5668 5669 5673 5678 5683 5688 5692 5696 5700 5702 5707 5710 5713 5715 5717 5718 5720 5721 5722 5721 5721 5720 5719 5718 5717 5715 5711 5709 5706 5701 5696 5692 5688 5685 5682 5680 5678
5601 5608 5614 5617 5622 5630 5642 5650 5655 5659 5664 5671 5676 5681 5686 5687 5694 5697 5701 5707 5708 5711 5713 5714 5716 5717 5718 5719 5718 5717 5716 5715 5713 5711 5709 5706 5705 5700 5695 5691 5686 5683 5679 5675 5672
5588 5593 5599 5605 5612 5620 5629 5637 5644 5651 5657 5662 5670 5672 5678 5680 5687 5689 5697 5701 5703 5706 5708 5710 5712 5713 5715 5715 5715 5713 5712 5712 5710 5709 5707 5705 5702 5699 5695 5691 5688 5685 5681 5676 5673
5571 5580 5587 5595 5602 5609 5618 5627 5635 5641 5648 5652 5659 5664 5672 5675 5680 5682 5689 5694 5698 5700 5703 5706 5707 5709 5710 5710 5710 5710 5709 5708 5707 5705 5703 5702 5699 5696 5694 5691 5688 5685 5682 5678 5674
5557 5566 5571 5582 5590 5595 5603 5613 5623 5631 5637 5643 5650 5656 5663 5668 5675 5678 5683 5687 5691 5695 5698 5701 5703 5705 5705 5706 5706 5706 5705 5704 5703 5702 5700 5698 5696 5694 5692 5691 5688 5686 5682 5678 5675
5544 5550 5555 5567 5575 5581 5592 5602 5611 5619 5626 5633 5640 5646 5652 5660 5666 5669 5674 5679 5683 5688 5692 5695 5697 5699 5700 5701 5701 5702 5701 5700 5699 5698 5696 5694 5694 5692 5690 5688 5686 5683 5681 5678 5675
Wind_Speed
3 2 3 3 4 6 6 11 12 14 16 16 18 21 24 30 35 39 39 40 40 40 40 41 40 41 41 40 37 37 38 33 30 32 38 40 36 36 34 36 31 33 31 35 34
1 3 3 3 4 5 5 4 8 8 9 8 8 8 8 12 22 33 38 41 42 42 41 41 40 40 39 38 38 37 33 28 32 34 36 41 45 42 35 21 28 36 36 34 25
4 5 5 6 7 7 6 5 5 6 6 7 11 11 8 8 12 17 28 36 42 43 41 41 41 41 38 36 36 34 32 32 38 40 41 43 42 42 35 35 37 36 41 42 31
8 8 8 8 9 8 7 6 7 7 7 10 8 10 9 8 7 9 15 21 31 38 39 39 39 38 34 32 34 37 38 40 41 39 37 38 38 39 29 37 35 34 32 35 37
13 12 12 10 9 9 9 8 6 5 2 1 5 3 5 5 6 7 8 10 15 23 28 33 34 34 35 40 42 36 35 33 35 29 28 30 34 36 36 40 40 37 37 42 44
15 15 14 12 10 10 9 9 6 5 4 3 7 6 5 1 9 11 10 12 14 14 16 20 22 24 26 26 24 23 26 28 31 36 33 34 38 41 41 40 39 41 45 47 48
16 16 15 12 9 8 9 10 7 7 5 2 3 5 9 10 9 12 6 12 6 13 14 15 21 21 22 23 23 23 23 28 32 37 37 35 39 45 45 45 47 46 47 47 48
18 17 16 13 10 8 8 10 9 8 7 5 2 3 5 9 15 14 13 19 10 12 12 17 17 14 17 19 18 19 20 23 30 33 37 37 35 42 49 50 51 52 52 53 53
19 18 18 15 13 10 8 9 11 11 10 8 5 3 5 7 10 11 13 14 11 10 11 13 11 11 16 13 15 18 19 22 26 28 31 36 43 47 42 45 49 50 51 52 54
21 19 19 18 15 13 11 10 11 14 13 10 8 5 5 7 9 11 12 12 12 12 12 11 11 11 12 14 16 14 16 18 22 24 26 31 36 35 39 42 48 50 50 50 54
23 21 20 19 17 16 13 10 11 13 17 15 13 8 7 8 10 11 11 10 10 9 8 6 6 10 12 12 14 14 17 18 19 24 29 33 34 38 41 44 48 51 52 53 56
26 24 22 20 19 18 16 12 10 11 13 17 16 13 9 9 12 12 11 10 9 7 7 7 7 6 5 8 11 12 13 17 21 23 28 35 38 41 44 48 51 53 57 59 60
29 26 24 22 19 19 18 17 13 11 12 15 17 16 13 10 10 9 9 8 8 8 7 6 6 6 7 8 10 11 13 14 17 23 29 33 37 41 47 52 56 59 62 66 67
31 29 26 24 21 20 20 21 17 13 11 13 16 17 16 13 12 10 9 8 7 7 7 6 6 8 9 10 11 10 12 15 19 22 26 30 32 30 34 37 37 40 44 60 69
33 31 29 27 26 19 23 24 21 17 13 14 14 16 16 14 14 12 9 9 8 8 8 7 8 9 9 9 10 11 12 15 17 20 21 22 25 22 20 26 32 33 37 36 40
36 34 32 30 27 25 25 26 25 22 17 11 13 18 17 17 14 13 11 11 10 10 9 10 10 10 9 9 9 10 11 12 15 18 21 20 19 17 23 28 29 32 28 24 28
38 37 35 34 29 30 28 28 29 27 19 16 12 15 18 17 16 14 13 12 11 11 12 11 10 9 9 8 9 8 9 11 13 18 19 21 16 19 20 21 23 25 24 23 26
40 39 38 36 34 35 33 32 30 25 24 19 17 16 17 18 16 15 14 14 13 14 13 12 10 9 10 9 8 7 7 9 12 15 17 18 19 17 16 20 20 19 18 19 23
43 42 40 39 40 39 38 37 28 26 28 24 22 19 20 19 18 17 17 14 14 14 13 12 9 10 9 8 8 7 7 7 9 11 14 16 15 18 16 21 19 16 15 21 19
45 44 42 41 42 43 43 38 30 29 29 28 25 24 22 21 21 21 19 16 15 14 13 12 10 9 9 9 9 8 8 8 8 10 13 16 16 18 20 20 18 14 10 15 17
47 46 45 44 46 47 46 38 32 32 31 29 29 28 26 24 24 24 22 18 16 15 14 13 10 10 9 9 9 7 8 8 8 9 11 14 15 16 17 18 15 13 11 9 9
49 48 47 47 48 49 45 38 34 35 34 32 33 31 28 27 27 27 23 21 18 17 15 14 11 10 8 10 9 9 9 9 9 9 10 12 14 16 19 21 21 16 9 10 10
52 50 48 50 52 50 44 41 40 40 37 35 33 32 29 30 28 29 25 20 20 17 16 14 13 11 9 9 10 10 11 10 11 10 11 12 13 14 17 20 22 23 24 24 22
54 54 53 53 52 50 47 45 44 41 38 36 33 36 33 33 27 32 25 24 22 18 18 16 14 13 11 9 10 11 12 11 11 12 11 12 12 11 14 17 19 20 21 21 22
58 57 55 54 52 51 48 46 45 44 41 40 38 38 34 33 30 32 28 28 24 22 18 16 15 14 13 11 11 11 12 12 12 13 14 14 14 14 14 15 16 17 19 20 20
61 59 59 55 53 54 52 49 46 47 46 44 41 39 36 35 32 30 31 31 29 25 21 18 17 15 15 13 12 12 13 13 13 13 14 16 15 15 15 14 15 16 17 18 20
61 62 62 59 57 57 54 52 50 49 50 47 43 42 41 38 36 37 35 34 33 30 26 23 20 18 18 17 15 13 14 13 14 14 16 17 15 16 17 16 16 19 18 19 18
Wind_Direction
311 303 304 289 269 263 282 257 249 254 256 254 254 256 256 254 249 245 241 239 236 235 238 235 234 231 229 229 231 233 236 235 234 226 231 241 237 237 220 219 238 251 242 249 249
352 349 338 309 287 282 314 284 255 255 258 266 260 275 286 274 252 247 244 240 238 232 230 231 232 234 231 228 230 231 235 230 229 232 236 241 246 246 248 234 246 249 243 246 252
302 319 325 319 307 304 309 322 269 261 279 280 267 274 265 291 273 261 241 235 234 232 228 228 226 226 226 228 230 230 228 233 234 234 235 240 245 247 251 252 250 248 261 263 243
275 298 311 314 308 300 294 297 284 286 292 303 279 231 252 264 291 280 255 243 230 229 225 226 225 221 220 222 227 225 223 229 234 238 241 244 250 257 250 243 239 241 244 259 261
270 281 290 293 297 292 280 270 293 278 270 2 359 8 235 260 288 266 242 236 225 225 226 219 218 219 215 218 221 224 230 234 246 249 245 243 246 249 241 234 233 235 241 244 253
265 272 277 286 299 306 281 272 267 279 261 75 70 56 50 90 314 245 232 214 201 190 193 198 204 214 222 230 230 233 235 236 236 242 241 237 243 246 245 242 235 235 239 243 248
264 269 274 276 277 292 290 264 253 236 235 173 149 86 97 68 74 106 97 152 172 170 157 187 206 205 216 220 219 223 226 235 237 242 243 243 243 245 247 249 248 245 245 243 248
268 271 273 269 257 266 276 255 243 225 225 205 156 108 119 122 101 107 82 146 137 146 159 169 177 188 196 201 209 222 229 239 246 245 250 243 247 251 252 252 254 252 249 249 247
265 269 270 266 256 251 264 261 239 227 228 221 202 165 144 138 137 133 143 129 134 146 161 161 168 182 204 206 213 220 235 239 242 243 246 254 252 250 255 257 257 256 254 253 251
259 265 267 264 256 247 249 253 244 232 229 226 216 195 186 163 154 158 155 154 164 171 168 166 173 183 198 214 224 249 247 242 252 258 261 262 264 260 256 255 256 255 252 249 248
253 259 263 264 258 248 247 246 246 238 234 229 222 201 194 172 167 170 167 173 179 178 176 172 170 212 216 220 234 238 246 257 264 265 263 265 269 270 268 266 264 262 259 254 248
248 253 256 259 258 253 248 247 245 237 237 234 227 220 207 191 177 177 176 183 192 197 193 205 207 213 238 265 274 281 283 274 278 283 284 282 282 280 276 272 268 263 261 257 253
245 246 250 253 253 249 246 247 242 241 241 234 228 222 215 205 198 193 195 201 206 219 227 220 237 254 280 277 262 260 273 291 292 291 289 288 286 280 275 271 268 264 259 255 252
243 242 243 247 247 245 243 244 241 239 239 234 225 219 218 211 207 212 220 228 248 262 272 284 301 307 303 291 287 292 295 296 298 300 302 298 287 283 286 286 282 282 277 261 250
242 240 239 239 243 244 238 242 242 236 235 233 223 217 215 211 210 214 226 240 252 268 282 282 290 288 284 281 287 296 301 305 310 315 314 310 305 317 323 320 318 317 304 308 289
240 238 238 238 238 235 238 236 239 238 229 230 221 218 218 211 212 217 225 236 249 262 261 266 270 267 274 283 290 297 305 313 321 329 340 339 315 321 317 317 313 318 312 305 299
238 237 236 234 233 234 233 237 237 237 236 227 219 212 209 208 212 217 224 235 250 255 260 262 256 263 270 281 293 299 310 324 337 353 353 350 320 317 320 324 325 333 323 320 313
236 236 234 233 230 231 233 234 235 236 235 228 222 215 208 210 211 216 227 234 245 252 254 250 252 253 275 285 292 300 313 333 346 352 351 354 330 317 315 324 318 323 338 340 347
234 233 233 231 231 232 233 232 230 233 232 230 227 224 221 222 221 223 225 234 241 253 253 247 242 256 267 281 291 301 311 336 352 353 349 353 336 328 305 312 306 313 344 337 342
234 232 231 232 232 232 232 231 227 228 230 231 227 227 226 222 223 225 226 229 240 245 245 251 253 257 269 280 290 304 313 332 348 354 354 1 4 334 314 317 318 316 333 340 343
234 231 229 229 231 232 233 230 224 225 230 229 225 225 227 225 223 222 226 226 232 236 239 246 250 256 266 278 280 285 296 307 331 345 356 0 5 6 353 349 313 301 308 312 322
234 231 228 228 231 234 232 229 223 223 225 222 226 228 227 227 228 228 226 225 230 230 231 239 244 252 261 278 286 292 301 303 312 325 338 351 356 357 4 8 15 10 317 302 303
236 233 228 228 228 233 231 227 222 224 223 223 224 228 223 229 226 229 226 216 225 227 229 234 243 251 258 273 281 284 294 297 301 312 323 332 343 350 347 4 11 13 13 15 18
234 234 231 228 227 228 228 225 224 223 220 222 222 227 223 229 222 227 219 212 221 221 229 235 244 253 262 267 278 286 290 291 295 298 308 315 325 336 346 354 358 356 1 3 7
231 232 233 230 229 228 227 226 224 220 220 217 216 225 224 228 223 225 213 213 218 218 224 233 243 254 264 272 280 287 290 291 289 296 299 310 319 332 339 342 345 345 348 350 354
228 230 234 230 228 228 224 222 223 221 220 218 217 220 222 227 223 226 216 215 218 220 224 231 241 252 262 273 282 292 294 294 293 291 291 294 309 316 324 329 336 339 336 339 343
229 226 230 229 228 227 225 223 220 218 219 220 216 218 219 223 223 223 221 215 219 222 227 232 240 248 258 267 276 288 291 296 292 292 291 292 300 303 312 319 327 328 333 332 329